| time (UTC) | temp F | wind direction | speed MPH | gust MPH | rain 1hr in | rain 24hr in | rain mn in | humidity % | barometer mb |
| 20260508083021 | 54 | 140 | 0.0 | 4.0 | 0.00 | 0.05 | 0.01 | 81 | |
| 20260508080051 | 48 | 123 | 1.0 | 3.0 | 0.00 | 0.05 | 0.01 | 96 | |
| 20260508073041 | 46 | 161 | 1.0 | 3.0 | 0.00 | 0.05 | 0.01 | 99 | |
| 20260508070052 | 46 | 190 | 1.0 | 3.0 | 0.00 | 0.05 | 0.01 | 99 | |
| 20260508063022 | 45 | 163 | 0.0 | 2.0 | 0.00 | 0.05 | 0.01 | 99 | |
| 20260508060113 | 44 | 0.0 | 0.0 | 0.00 | 0.05 | 0.01 | 99 | ||
| 20260508053023 | 42 | 118 | 0.0 | 1.0 | 0.00 | 0.05 | 0.01 | 99 | |
| 20260508050054 | 41 | 127 | 0.0 | 1.0 | 0.00 | 0.05 | 0.01 | 99 | |
| 20260508043024 | 40 | 133 | 0.0 | 1.0 | 0.00 | 0.05 | 0.01 | 99 | |
| 20260508040114 | 40 | 136 | 0.0 | 1.0 | 0.00 | 0.05 | 0.01 | 99 | |
| 20260508033025 | 39 | 130 | 0.0 | 2.0 | 0.00 | 0.05 | 0.01 | 99 | |
| 20260508030055 | 39 | 141 | 0.0 | 2.0 | 0.00 | 0.05 | 0.01 | 99 | |
| 20260508023026 | 39 | 151 | 0.0 | 1.0 | 0.00 | 0.05 | 0.01 | 99 | |
| 20260508020116 | 39 | 138 | 0.0 | 2.0 | 0.01 | 0.05 | 0.01 | 99 | |
| 20260508013027 | 39 | 133 | 0.0 | 1.0 | 0.01 | 0.05 | 0.01 | 99 | |
| 20260508010058 | 39 | 0.0 | 1.0 | 0.00 | 0.04 | 0.00 | 99 | ||
| 20260508003028 | 40 | 0.0 | 1.0 | 0.00 | 0.04 | 0.00 | 99 | ||
| 20260508000059 | 41 | 140 | 0.0 | 2.0 | 0.00 | 0.04 | 0.00 | 99 | |
| 20260507233029 | 42 | 145 | 0.0 | 2.0 | 0.00 | 0.04 | 0.00 | 99 | |
| 20260507230059 | 43 | 137 | 0.0 | 3.0 | 0.00 | 0.04 | 0.00 | 98 | |
| 20260507223029 | 44 | 147 | 0.0 | 3.0 | 0.00 | 0.04 | 0.00 | 97 | |
| 20260507220120 | 45 | 143 | 0.0 | 2.0 | 0.00 | 0.04 | 0.00 | 97 | |
| 20260507213031 | 44 | 0.0 | 0.0 | 0.00 | 0.04 | 0.04 | 97 | ||
| 20260507210121 | 45 | 0.0 | 0.0 | 0.00 | 0.07 | 0.04 | 97 | ||
| 20260507203032 | 46 | 0.0 | 0.0 | 0.00 | 0.07 | 0.04 | 96 | ||
| 20260507200122 | 46 | 0.0 | 0.0 | 0.00 | 0.07 | 0.04 | 95 | ||
| 20260507193032 | 47 | 0.0 | 0.0 | 0.00 | 0.07 | 0.04 | 94 | ||
| 20260507183033 | 51 | 138 | 0.0 | 2.0 | 0.00 | 0.16 | 0.04 | 87 | |
| 20260507180104 | 52 | 242 | 1.0 | 6.0 | 0.00 | 0.34 | 0.04 | 85 | |
| 20260507173034 | 53 | 251 | 2.0 | 6.0 | 0.00 | 0.34 | 0.04 | 84 | |
| 20260507170125 | 54 | 177 | 1.0 | 3.0 | 0.00 | 0.34 | 0.04 | 83 | |
| 20260507163035 | 53 | 290 | 2.0 | 6.0 | 0.00 | 0.34 | 0.04 | 83 | |
| 20260507160105 | 55 | 284 | 2.0 | 6.0 | 0.00 | 0.34 | 0.04 | 80 | |
| 20260507153036 | 54 | 283 | 1.0 | 6.0 | 0.00 | 0.34 | 0.04 | 83 | |
| 20260507150106 | 53 | 255 | 2.0 | 8.0 | 0.00 | 0.34 | 0.04 | 84 | |
| 20260507143037 | 51 | 215 | 2.0 | 6.0 | 0.00 | 0.34 | 0.04 | 89 | |
| 20260507140107 | 53 | 195 | 2.0 | 6.0 | 0.00 | 0.34 | 0.04 | 88 | |
| 20260507133037 | 52 | 243 | 1.0 | 6.0 | 0.01 | 0.34 | 0.04 | 88 | |
| 20260507130128 | 52 | 238 | 2.0 | 8.0 | 0.01 | 0.34 | 0.04 | 87 | |
| 20260507123038 | 52 | 184 | 2.0 | 7.0 | 0.01 | 0.33 | 0.03 | 89 | |
| 20260507120108 | 51 | 208 | 1.0 | 4.0 | 0.02 | 0.33 | 0.03 | 90 | |
| 20260507113039 | 52 | 269 | 2.0 | 9.0 | 0.01 | 0.32 | 0.02 | 88 | |
| 20260507110109 | 51 | 264 | 3.0 | 8.0 | 0.00 | 0.31 | 0.01 | 88 | |
| 20260507103040 | 52 | 284 | 3.0 | 13.0 | 0.00 | 0.31 | 0.01 | 87 | |
| 20260507100111 | 52 | 258 | 2.0 | 11.0 | 0.00 | 0.31 | 0.01 | 89 | |
| 20260507093041 | 51 | 185 | 1.0 | 8.0 | 0.01 | 0.31 | 0.01 | 91 | |
| 20260507090112 | 51 | 235 | 1.0 | 7.0 | 0.01 | 0.31 | 0.01 | 91 |